Home > Weather > Lubbock > Past weeks

Flag for USA Weather for the Past 2 Weeks in Lubbock, Texas, USA

Now
41 °F

Clear.


Feels Like: 37 °F
Forecast: 45 / 81 °F
Wind: 6 mph from Northwest

Location: Lubbock International Airport

Current Time: May 4, 2016 at 7:35:18 AM

Latest Report: May 4, 2016 at 6:53 AM


Visibility: 9 mi

Pressure: 30.14 "Hg (26.73 "Hg at 976m altitude)

Humidity: 82%

Dew Point: 36 °F

Location of LubbockLocation

Historic Weather in Lubbock — Graph

°F

Lubbock Temperature Yesterday

Maximum temperature yesterday: 72 °F (at 1:53 PM)
Minimum temperature yesterday: 43 °F (at 6:53 AM)
Average temperature yesterday: 58 °F

High & Low Weather Summary for the Past Weeks

 TemperatureHumidityPressure
High88 °F (Apr 25, 3:53 PM)100% (Apr 19, 5:53 AM)30.23 "Hg (Apr 19, 5:53 AM)
Low39 °F (May 2, 6:53 AM)7% (Apr 29, 3:53 PM)29.44 "Hg (Apr 26, 5:53 PM)
Average63 °F53%29.83 "Hg
* Reported Apr 19 5:53 AM — May 4 5:53 AM, Lubbock, Weather by CustomWeather, © 2016

Note: Actual official high and low records may vary slightly from our data, if they occured in-between our weather recording intervals... More about our weather records

Advertising

Lubbock Weather History for the Previous 24 Hours

Scroll right to see more
 ConditionsComfort  
Time TempWeatherWind HumidityBarometerVisibility
5:53 AM
Wed, May 4
43 °FClear.8 mph79%30.13 "Hg10 mi
4:53 AM42 °FClear.6 mph85%30.12 "Hg10 mi
3:53 AM43 °FClear.6 mph86%30.11 "Hg10 mi
2:53 AM44 °FClear.6 mph89%30.10 "Hg10 mi
1:53 AM45 °FClear.6 mph90%30.10 "Hg10 mi
12:53 AM49 °FClear.6 mph84%30.09 "Hg10 mi
11:53 PM
Tue, May 3
51 °FClear.7 mph83%30.09 "Hg10 mi
10:53 PM55 °FClear.5 mph72%30.07 "Hg10 mi
9:53 PM56 °FClear.No wind72%30.05 "Hg10 mi
8:53 PM58 °FPassing clouds.3 mph67%30.03 "Hg10 mi
7:53 PM63 °FPassing clouds.No wind56%30.03 "Hg10 mi
6:53 PM65 °FPassing clouds.7 mph54%30.02 "Hg10 mi
5:53 PM63 °FPartly sunny.8 mph65%30.01 "Hg10 mi
5:01 PM63 °FThunderstorms. Partly sunny.13 mph68%30.10 "Hg5 mi
4:53 PM64 °FThunderstorms. Broken clouds.10 mph54%30.02 "Hg10 mi
3:53 PM71 °FPartly sunny.5 mph32%29.98 "Hg10 mi
2:53 PM67 °FThunderstorms. Cloudy.5 mph44%30.00 "Hg10 mi
1:53 PM72 °FPartly sunny.9 mph29%29.99 "Hg10 mi
12:53 PM71 °FPartly sunny.9 mph30%30.01 "Hg10 mi
11:53 AM69 °FPartly sunny.15 mph33%30.03 "Hg10 mi
10:53 AM67 °FScattered clouds.13 mph39%30.04 "Hg10 mi
9:53 AM62 °FPassing clouds.14 mph48%30.04 "Hg10 mi
8:53 AM55 °FPassing clouds.9 mph53%30.05 "Hg10 mi
7:53 AM47 °FPassing clouds.5 mph66%30.04 "Hg10 mi
Weather by CustomWeather, © 2016

See weather overviewHow to use our weather pages